Zurück zum Katalog

STARLINK-32794

AktivKommunikationVLEO
NORAD 62844·PAYLOAD·🇺🇸 United States

Gestartet Jan 27, 2025 von Cape Canaveral Space Force Station

Loading…

Nächste Überflüge (nächste 24 Stunden)

TLE

AktuellSource: CelesTrak SupGP

Epoche: Sep 15, 2026, 03:03 UTC

1 62844C 25019R   26258.12756944  .00014498  00000+0  52499-3 0  2587
2 62844  43.0028  99.4086 0001812 273.2126 309.1363 15.27578360    14

Verfolge STARLINK-32794 in Echtzeit mit AllMySat

Download on the App Store